This is the latest recevied weather packets stored in our database for station/object N7CEE-2. If no packets are shown the sender has not sent any weather packets the latest 10 day(s).
| Time | Temp. | Humidity | Pressure | Rain* | Wind** | Luminosity | Snow |
|---|---|---|---|---|---|---|---|
| 1777079156 | 29.44° C | 18% | 1008.7 hPa | 0 mm | - | 78 W/m² | - |
| 1777078853 | 29.44° C | 18% | 1008.8 hPa | 0 mm | - | 85 W/m² | - |
| 1777078549 | 29.44° C | 18% | 1008.7 hPa | 0 mm | - | 106 W/m² | - |
| 1777078245 | 29.44° C | 18% | 1008.8 hPa | 0 mm | - | 135 W/m² | - |
| 1777077939 | 29.44° C | 18% | 1008.9 hPa | 0 mm | - | 141 W/m² | - |
| 1777077636 | 30° C | 18% | 1008.7 hPa | 0 mm | - | 164 W/m² | - |
| 1777077332 | 30° C | 17% | 1008.7 hPa | 0 mm | - | 197 W/m² | - |
| 1777077030 | 30° C | 18% | 1008.9 hPa | 0 mm | - | 188 W/m² | - |
| 1777076727 | 30° C | 17% | 1008.9 hPa | 0 mm | - | 252 W/m² | - |
| 1777076423 | 29.44° C | 17% | 1009 hPa | 0 mm | - | 180 W/m² | - |
| 1777076118 | 30° C | 17% | 1009.2 hPa | 0 mm | - | 276 W/m² | - |
| 1777075815 | 30° C | 17% | 1009.2 hPa | 0 mm | - | 257 W/m² | - |
| 1777075509 | 30° C | 17% | 1009.2 hPa | 0 mm | - | 274 W/m² | - |
| 1777075207 | 30° C | 17% | 1009.2 hPa | 0 mm | - | 331 W/m² | - |
| 1777074903 | 30° C | 17% | 1009.3 hPa | 0 mm | - | 349 W/m² | - |
| 1777074598 | 30° C | 17% | 1009.3 hPa | 0 mm | - | 365 W/m² | - |
| 1777074293 | 30° C | 16% | 1009.2 hPa | 0 mm | - | 385 W/m² | - |
| 1777073991 | 29.44° C | 17% | 1009.2 hPa | 0 mm | - | 409 W/m² | - |
| 1777073685 | 30° C | 17% | 1009.6 hPa | 0 mm | - | 434 W/m² | - |
| 1777073381 | 29.44° C | 17% | 1009.3 hPa | 0 mm | - | 430 W/m² | - |
| 1777073078 | 30.56° C | 17% | 1009.5 hPa | 0 mm | - | 482 W/m² | - |
| 1777072774 | 30° C | 17% | 1009.5 hPa | 0 mm | - | 505 W/m² | - |
| 1777072473 | 30.56° C | 16% | 1009.6 hPa | 0 mm | - | 503 W/m² | - |
| 1777072167 | 30.56° C | 17% | 1009.5 hPa | 0 mm | - | 500 W/m² | - |
| 1777071864 | 30° C | 16% | 1009.2 hPa | 0 mm | - | 567 W/m² | - |
* Rain latest hour (hover to see other rain measurements)
** Current wind speed in m/s (hover to see current wind gust speed)